[[{"header":{"parameterUnit":"m.s-1","parameterCategory":1,"la1":30.2991,"la2":30.254,"lo1":-89.0895,"lo2":-89.0444,"dy":0.0017,"dx":0.0017,"nx":28,"ny":28,"refTime":"2024-08-18T21:00:00:Z","depth":0,"parameterNumber":2,"parameterNumberName":"U-component_of_WINDS"},"data":[0,0,0,0,0,0,0,0,0,0,0,0,0,0,0,0,0,0,0,0,0,0,0,0,0,0,0,0,0,0,0,0,0,0,0,0,0,0,0,0,0,0,0,0,0,0,0,0,0,0,0,0,0,0,0,0,0,0,3.9138,3.9138,0,3.9116,3.9116,3.9116,3.8895,3.889,3.8884,3.8879,3.8861,3.8866,3.887,0,0,0,0,0,0,0,0,0,0,0,0,0,3.8995,3.8999,3.9138,3.9138,3.9138,3.9116,3.9116,3.9116,3.8896,3.8889,3.8883,3.8876,3.886,3.8865,3.8871,0,0,0,0,0,0,0,0,0,0,0,0,0,3.9024,3.9,3.9138,3.9025,3.9015,3.9117,3.9116,3.9116,3.8898,3.8889,3.8881,3.8873,3.8858,3.8864,3.8871,3.9081,0,0,3.8893,3.8896,0,0,0,0,0,0,0,0,3.9023,3.903,3.9042,3.9033,3.9022,3.9,3.9059,3.9104,3.89,3.8942,3.8879,3.8869,3.8914,3.8916,3.893,3.908,3.9079,3.8893,3.8898,3.8901,3.8903,0,0,0,0,0,0,0,3.9021,3.9029,3.913,3.9043,3.903,3.8978,3.8973,3.9066,3.8975,3.8938,3.8922,3.8922,3.8907,3.8924,3.8928,3.9079,3.8893,3.89,3.8904,3.8907,3.9401,3.941,0,0,0,0,0,0,3.9034,3.9029,3.913,3.9129,3.9002,3.8987,3.8981,3.9016,3.8974,3.8959,3.8929,3.8912,3.8916,3.892,3.8927,3.917,3.8901,3.8907,3.8911,3.9392,3.9403,3.9413,0,0,0,0,0,0,3.9032,3.9045,3.9131,3.9075,3.9082,3.8998,3.9039,3.9019,3.9036,3.8967,3.895,3.8963,3.891,3.8917,3.9044,3.9166,3.891,3.8917,3.9382,3.9396,3.9408,3.9658,0,0,0,0,0,0,3.9029,3.9046,3.9123,3.9078,3.9085,3.9248,3.9046,3.9025,3.9048,3.9025,3.8994,3.8981,3.8904,3.9035,3.9051,3.9171,3.8922,3.937,3.9388,3.9404,3.9638,3.9678,3.9712,0,0,0,0,0,3.9024,3.9195,3.9128,3.9141,3.918,3.9255,3.926,3.9166,3.9059,3.9137,3.9093,3.8982,3.9151,3.905,3.9066,3.919,3.9362,3.9383,3.9402,3.9622,3.967,3.9711,0,0,0,0,0,0,3.9257,3.9187,3.9112,3.9272,3.9272,3.9218,3.9313,3.9221,3.9251,3.9229,3.9113,3.9108,3.9253,3.9234,3.9123,3.9392,3.9237,3.9262,3.9398,3.9444,3.948,3.9482,3.8928,0,0,0,0,0,3.9327,3.9392,3.9328,3.9476,3.9479,3.9398,3.9427,3.9355,3.935,3.9349,3.9313,3.9314,3.9367,3.9404,3.9449,3.9635,3.9626,3.9728,3.9765,3.9796,3.9818,3.9917,3.9962,3.9479,3.9478,3.9478,0,0,3.9472,3.9442,3.949,3.9522,3.9513,3.9585,3.9398,3.9482,3.9535,3.9361,3.9479,3.9455,3.9448,3.9606,3.9673,3.9594,3.995,3.9822,3.9847,3.9852,3.9942,3.9988,4.0029,3.9492,3.949,3.9488,0,0,3.9773,3.9757,3.9878,3.9873,3.9862,3.9806,3.9836,3.9797,3.9774,3.989,3.9762,3.9824,3.9918,3.9918,3.9931,4.0236,4.0136,4.0255,4.0447,4.0545,4.0583,4.0616,4.0726,4.0766,4.0277,4.0278,4.0278,0,3.9955,4.0057,3.9953,4.0046,4.0065,3.9911,4.0035,4.0035,4.004,4.0057,3.9969,4.0084,4.0068,4.0225,4.0299,4.0315,4.0346,4.0257,4.0585,4.0617,4.0647,4.075,4.0792,4.0292,4.0291,4.0289,4.0288,0,4.0282,4.0356,4.0456,4.0463,4.0493,4.0602,4.0516,4.056,4.0487,4.0442,4.0563,4.054,4.0578,4.061,4.0539,4.0758,4.0709,4.0605,4.0447,4.0709,4.0804,4.0843,4.0313,4.0308,4.0303,4.03,0,0,4.0727,4.0678,4.0716,4.0718,4.0696,4.0751,4.0854,4.089,4.093,4.094,4.1024,4.1107,4.1011,4.1026,4.0955,4.104,4.1285,4.0925,4.0923,4.0994,4.1526,4.1604,4.1652,4.1219,4.1226,4.1232,4.1527,0,4.1018,4.1188,4.1099,4.1282,4.1349,4.1205,4.1295,4.1292,4.1253,4.1306,4.1264,4.1325,4.1193,4.1202,4.128,4.1239,4.1391,4.1216,4.1297,4.1302,4.1303,4.1701,4.1784,4.2063,4.1563,4.1569,4.1574,0,4.1378,4.1402,4.1592,4.1558,4.1583,4.1665,4.1692,4.1744,4.1739,4.1705,4.1724,4.1633,4.1733,4.1578,4.1716,4.1599,4.1628,4.1613,4.1622,4.1625,4.1453,4.1716,4.215,4.2192,4.1631,4.1627,4.1622,0,4.1685,4.1765,4.1889,4.1895,4.1859,4.192,4.1908,4.1895,4.1923,4.1948,4.1965,4.2002,4.2023,4.2054,4.1977,4.1871,4.2126,4.1964,4.2102,4.2104,4.2161,4.2158,4.2606,4.2181,4.218,4.2179,4.2178,0,4.2018,4.214,4.2026,4.2102,4.2236,4.2133,4.2269,4.2241,4.2231,4.2301,4.218,4.2249,4.2142,4.2201,4.2141,4.2265,4.2275,4.2252,4.2234,4.2262,4.2266,4.2279,4.2257,4.219,4.2188,4.2186,4.2184,0,4.2382,4.231,4.2436,4.2392,4.2384,4.2484,4.2447,4.2517,4.2471,4.2561,4.2577,4.2505,4.2569,4.2494,4.2552,4.2511,4.268,4.2634,4.2682,4.2668,4.281,4.2798,4.3282,4.334,4.2878,4.2883,4.2887,0,4.2598,4.2689,4.2655,4.2692,4.2688,4.275,4.2778,4.2683,4.2718,4.272,4.2791,4.2843,4.288,4.2989,4.2943,4.2987,4.2941,4.3107,4.2946,4.2973,4.2944,4.2939,4.2948,4.314,4.3146,4.315,4.3154,0,4.2991,4.2952,4.2996,4.3031,4.3068,4.309,4.3103,4.3142,4.3042,4.3088,4.3151,4.318,4.3239,4.3294,4.3325,4.3314,4.322,4.3205,4.3239,4.3269,4.3293,4.3282,4.2771,4.3194,4.319,4.3187,4.3185,4.3183,4.3288,4.3362,4.335,4.3405,4.3405,4.3421,4.3485,4.3447,4.3497,4.3537,4.3478,4.3558,4.3552,4.3584,4.3585,4.3647,4.3576,4.3625,4.3638,4.3651,4.3673,4.3284,4.3652,4.3651,4.365,4.3649,4.3648,0,4.3674,4.366,4.3712,4.3734,4.3778,4.3684,4.3695,4.3738,4.3809,4.3812,4.3851,4.3925,4.3978,4.3937,4.3982,4.404,4.3998,4.4055,4.4049,4.4049,4.3734,4.37,4.4088,4.4088,4.4088,4.4088,4.4088,4.4088,4.388,4.4001,4.3962,4.4083,4.4067,4.4143,4.4158,4.4173,4.4174,4.4262,4.4305,4.4278,4.4264,4.4308,4.4353,4.434,4.4362,4.4436,4.4408,4.4114,4.4071,4.4029,4.3997,4.4442,4.4442,4.4717,4.472,4.4721]},{"header":{"parameterUnit":"m.s-1","parameterCategory":1,"la1":30.2991,"la2":30.254,"lo1":-89.0895,"lo2":-89.0444,"dy":0.0017,"dx":0.0017,"nx":28,"ny":28,"refTime":"2024-08-18T21:00:00:Z","depth":0,"parameterNumber":3,"parameterNumberName":"V-component_of_WINDS"},"data":[0,0,0,0,0,0,0,0,0,0,0,0,0,0,0,0,0,0,0,0,0,0,0,0,0,0,0,0,0,0,0,0,0,0,0,0,0,0,0,0,0,0,0,0,0,0,0,0,0,0,0,0,0,0,0,0,0,0,-0.317,-0.3172,0,-0.3292,-0.3294,-0.3295,-0.342,-0.3422,-0.3423,-0.3425,-0.3553,-0.3555,-0.3557,0,0,0,0,0,0,0,0,0,0,0,0,0,-0.3045,-0.3047,-0.317,-0.3172,-0.3173,-0.3292,-0.3294,-0.3296,-0.342,-0.3422,-0.3424,-0.3426,-0.3552,-0.3555,-0.3557,0,0,0,0,0,0,0,0,0,0,0,0,0,-0.3126,-0.3047,-0.317,-0.325,-0.3258,-0.3292,-0.3294,-0.3296,-0.3419,-0.3422,-0.3424,-0.3427,-0.3552,-0.3554,-0.3557,-0.3523,0,0,-0.3565,-0.3567,0,0,0,0,0,0,0,0,-0.3122,-0.3131,-0.3236,-0.3244,-0.3254,-0.3344,-0.3297,-0.3372,-0.3419,-0.3358,-0.3425,-0.3428,-0.3481,-0.349,-0.3508,-0.3529,-0.3535,-0.3566,-0.3567,-0.3569,-0.3569,0,0,0,0,0,0,0,-0.3116,-0.3126,-0.3219,-0.3238,-0.3248,-0.3279,-0.3294,-0.3312,-0.3404,-0.3364,-0.3373,-0.3385,-0.3487,-0.3505,-0.3512,-0.3537,-0.3566,-0.3568,-0.357,-0.3571,-0.3534,-0.3532,0,0,0,0,0,0,-0.3098,-0.3121,-0.3215,-0.3222,-0.3192,-0.3279,-0.3295,-0.3312,-0.3404,-0.3421,-0.3383,-0.3391,-0.3499,-0.3508,-0.3516,-0.3482,-0.3569,-0.3571,-0.3573,-0.3537,-0.3533,-0.3531,0,0,0,0,0,0,-0.3095,-0.3105,-0.321,-0.3174,-0.319,-0.3279,-0.3296,-0.3313,-0.3331,-0.3419,-0.3436,-0.3384,-0.3501,-0.3513,-0.352,-0.3488,-0.3572,-0.3575,-0.354,-0.3536,-0.3532,-0.3412,0,0,0,0,0,0,-0.3091,-0.3103,-0.3092,-0.3173,-0.3191,-0.3211,-0.3295,-0.3314,-0.3335,-0.3347,-0.3425,-0.344,-0.3504,-0.3515,-0.3522,-0.3493,-0.3577,-0.3543,-0.3538,-0.3533,-0.342,-0.3405,-0.3392,0,0,0,0,0,-0.3086,-0.3054,-0.309,-0.3101,-0.3178,-0.3209,-0.322,-0.3292,-0.3332,-0.3321,-0.3377,-0.3438,-0.3489,-0.3515,-0.3524,-0.3495,-0.3545,-0.3539,-0.3534,-0.3426,-0.3408,-0.3392,0,0,0,0,0,0,-0.2969,-0.3067,-0.3108,-0.3102,-0.3146,-0.323,-0.3219,-0.3271,-0.3306,-0.3315,-0.3405,-0.3421,-0.3418,-0.3458,-0.3484,-0.3466,-0.3526,-0.3522,-0.3441,-0.3424,-0.3411,-0.3402,-0.3579,0,0,0,0,0,-0.2942,-0.2959,-0.3043,-0.303,-0.3049,-0.3129,-0.3145,-0.3197,-0.3247,-0.3267,-0.3323,-0.337,-0.3396,-0.3412,-0.3442,-0.3425,-0.3443,-0.341,-0.3396,-0.3384,-0.338,-0.3372,-0.3357,-0.3511,-0.3511,-0.3511,0,0,-0.2889,-0.2943,-0.2949,-0.3007,-0.3048,-0.3062,-0.3145,-0.3157,-0.3169,-0.3269,-0.3279,-0.3321,-0.3379,-0.3373,-0.3374,-0.3406,-0.3341,-0.3376,-0.3366,-0.3369,-0.3364,-0.3349,-0.3336,-0.3507,-0.3508,-0.3509,0,0,-0.2797,-0.284,-0.2833,-0.287,-0.2929,-0.2982,-0.298,-0.3055,-0.3086,-0.3097,-0.3172,-0.3186,-0.3231,-0.3268,-0.3293,-0.321,-0.3267,-0.3217,-0.3146,-0.3137,-0.3125,-0.3115,-0.3084,-0.3072,-0.3212,-0.3212,-0.3212,0,-0.2723,-0.2748,-0.2823,-0.283,-0.2853,-0.2941,-0.2934,-0.2967,-0.3032,-0.3046,-0.3081,-0.3136,-0.3182,-0.3185,-0.3164,-0.3181,-0.3181,-0.321,-0.312,-0.3111,-0.3102,-0.3074,-0.3063,-0.3205,-0.3206,-0.3207,-0.3207,0,-0.2653,-0.2668,-0.2655,-0.2713,-0.2735,-0.2734,-0.2809,-0.2821,-0.2869,-0.2918,-0.2926,-0.2983,-0.3024,-0.3028,-0.3077,-0.3037,-0.3055,-0.3103,-0.3166,-0.308,-0.3055,-0.3045,-0.3196,-0.3198,-0.32,-0.3202,0,0,-0.2496,-0.2592,-0.2586,-0.2613,-0.2682,-0.2695,-0.2697,-0.2736,-0.2744,-0.2785,-0.2789,-0.2822,-0.2866,-0.2894,-0.2947,-0.2939,-0.2867,-0.2988,-0.2991,-0.2964,-0.2826,-0.2789,-0.2775,-0.2904,-0.2903,-0.2901,-0.2821,0,-0.2417,-0.2426,-0.2492,-0.2482,-0.2496,-0.2578,-0.2579,-0.2621,-0.2666,-0.2684,-0.2734,-0.2755,-0.2812,-0.2829,-0.2824,-0.2877,-0.2841,-0.2884,-0.2909,-0.2909,-0.2893,-0.2763,-0.2725,-0.2647,-0.2811,-0.281,-0.2809,0,-0.2327,-0.236,-0.235,-0.2416,-0.2424,-0.2425,-0.2463,-0.248,-0.2528,-0.2561,-0.2589,-0.2647,-0.2654,-0.271,-0.272,-0.2747,-0.2761,-0.2788,-0.2786,-0.2793,-0.2855,-0.2766,-0.2623,-0.2611,-0.2794,-0.2796,-0.2797,0,-0.2213,-0.2254,-0.2254,-0.2273,-0.235,-0.2348,-0.238,-0.2431,-0.2449,-0.2482,-0.2494,-0.2528,-0.2547,-0.2572,-0.2638,-0.2673,-0.2639,-0.2702,-0.2666,-0.2664,-0.2657,-0.2657,-0.2515,-0.2664,-0.2665,-0.2665,-0.2665,0,-0.2119,-0.211,-0.2203,-0.2202,-0.2194,-0.2268,-0.2258,-0.2298,-0.2341,-0.235,-0.2422,-0.2429,-0.2514,-0.253,-0.2581,-0.258,-0.2589,-0.2615,-0.2629,-0.2609,-0.2605,-0.2621,-0.2628,-0.2662,-0.2662,-0.2663,-0.2664,0,-0.1991,-0.2053,-0.2057,-0.2128,-0.2145,-0.2135,-0.2196,-0.2198,-0.2245,-0.2254,-0.2261,-0.2334,-0.2356,-0.2423,-0.2463,-0.2497,-0.2481,-0.2507,-0.2464,-0.2473,-0.2434,-0.2436,-0.2297,-0.2283,-0.244,-0.2438,-0.2437,0,-0.1927,-0.1922,-0.199,-0.2,-0.2028,-0.2043,-0.2061,-0.2132,-0.2147,-0.2199,-0.2195,-0.2222,-0.2248,-0.2278,-0.2336,-0.2366,-0.2393,-0.2342,-0.2399,-0.2377,-0.2392,-0.2392,-0.2391,-0.2331,-0.2328,-0.2327,-0.2325,0,-0.1808,-0.1837,-0.1859,-0.1889,-0.1907,-0.1935,-0.1968,-0.1972,-0.2052,-0.2065,-0.2087,-0.2106,-0.2144,-0.217,-0.2208,-0.2242,-0.2296,-0.2306,-0.23,-0.228,-0.2255,-0.2267,-0.2431,-0.231,-0.2312,-0.2313,-0.2314,-0.2314,-0.1711,-0.1708,-0.1755,-0.1775,-0.1806,-0.1834,-0.1838,-0.1884,-0.1903,-0.1938,-0.1979,-0.1995,-0.2041,-0.2097,-0.2126,-0.214,-0.217,-0.216,-0.2158,-0.2155,-0.2145,-0.2251,-0.2147,-0.2148,-0.2148,-0.2149,-0.2149,0,-0.1594,-0.1627,-0.1645,-0.1686,-0.1701,-0.1749,-0.1786,-0.1796,-0.1809,-0.1846,-0.1868,-0.1892,-0.1916,-0.1973,-0.2002,-0.2002,-0.2028,-0.2007,-0.2009,-0.2015,-0.2117,-0.212,-0.1986,-0.1986,-0.1986,-0.1986,-0.1986,-0.1986,-0.1536,-0.1534,-0.1568,-0.1581,-0.1614,-0.1629,-0.1646,-0.1671,-0.1701,-0.1723,-0.1743,-0.1779,-0.1823,-0.1856,-0.1879,-0.1895,-0.1903,-0.1874,-0.1898,-0.1993,-0.2008,-0.2023,-0.2026,-0.1875,-0.1875,-0.1796,-0.1795,-0.1794]}]]